{"data":{"norad_id":45697,"epoch":"2026-05-25T00:00:55.048896Z","epoch_age_seconds":78010,"freshness":"FRESH","line1":"1 45697U 20035AS  26145.00063714  .00042852  00000+0  43248-3 0  9994","line2":"2 45697  53.0445  10.3895 0005342 104.2433 255.9175 15.64932922331274","mean_motion":15.64932922,"eccentricity":0.0005342,"inclination_deg":53.0445,"raan_deg":10.3895,"arg_perigee_deg":104.2433,"mean_anomaly_deg":255.9175,"bstar":0.00043248,"rev_number":33127,"period_min":92.016723512958,"perigee_km":369.82499368208,"apogee_km":377.03836966158,"semimajor_km":6751.5686816718,"source":"CELESTRAK","updated_at":"2026-05-25T13:38:16.430356Z"}}